Wind_Speed
42 42 42 42 41 41 41 41 41 41 42 41 42 42 42 42 42 43 43 44 44 45 45 46 46 47 48 49 50 51 52 53 54 54 55 56 56 57 57 57 58 58 59 59 60 61 62 62 62 61 60 60 60 60 62 63 63 64 63 61 58 56 52 49 45 42 38 35 32 30 28 26 25 24 23 22 22 22 22 22 21 21 21 21 20 20
44 43 43 42 42 42 42 42 42 42 42 42 42 42 43 43 43 44 44 45 45 45 46 47 47 48 49 50 51 52 53 54 54 55 56 56 57 57 57 58 58 58 59 60 61 62 62 61 60 60 59 59 60 60 61 62 62 61 59 57 54 51 48 45 41 38 35 32 30 28 26 25 24 23 23 23 23 22 22 22 22 22 22 21 21 21
44 44 44 43 43 43 43 43 43 43 43 43 43 43 44 44 44 45 45 45 46 46 47 47 48 49 50 51 52 53 54 54 55 56 56 56 57 57 57 58 58 59 60 61 62 62 61 60 59 59 58 59 59 60 61 61 60 58 56 53 50 47 44 41 38 35 32 30 28 27 26 25 24 24 24 24 23 23 23 23 23 22 22 22 22 22
45 45 44 44 44 44 44 44 44 44 44 44 44 44 44 44 45 45 45 46 46 47 47 48 49 50 51 52 53 53 54 55 55 56 56 57 57 57 58 58 59 59 60 61 61 61 60 59 58 58 58 58 59 59 59 58 57 55 52 50 47 44 41 38 36 33 31 29 28 27 26 26 25 25 25 25 24 24 24 23 23 23 23 23 23 23
46 45 45 45 44 44 45 44 44 44 44 45 45 45 45 45 45 46 46 46 47 47 48 48 49 50 51 52 53 54 54 55 55 56 56 57 57 57 58 58 59 60 61 61 61 60 58 57 57 57 57 58 58 58 57 56 54 51 49 47 44 41 39 36 34 32 30 29 28 28 27 27 26 26 26 26 25 25 25 24 24 24 24 24 24 24
46 46 46 45 45 45 45 45 45 45 45 45 45 45 45 46 46 46 46 46 47 47 48 49 50 51 52 53 53 54 54 55 55 56 56 57 57 58 58 59 60 60 61 60 59 58 57 56 56 56 57 57 57 56 55 53 51 49 46 44 42 39 37 35 33 32 31 30 29 29 28 28 28 27 27 27 26 26 26 25 25 25 25 25 25 25
47 47 47 46 46 46 45 45 45 45 45 46 46 46 46 46 46 46 47 47 47 48 49 50 51 52 53 53 54 54 54 55 55 56 56 57 57 58 59 59 60 60 60 59 58 57 56 56 55 56 56 56 55 54 52 50 48 46 44 42 40 38 36 35 33 32 31 31 30 30 30 29 29 29 28 28 27 27 27 27 26 26 26 26 27 27
47 47 47 46 46 46 46 46 46 46 46 46 46 46 46 46 46 47 47 47 48 49 50 51 52 53 53 54 54 54 55 55 56 56 57 57 58 58 59 60 60 60 59 58 57 55 55 55 55 55 54 54 53 52 50 48 46 44 43 41 39 38 36 35 34 33 33 32 32 31 31 31 30 30 29 29 29 28 28 28 28 28 28 28 28 28
47 47 47 47 46 46 46 46 46 46 46 46 47 47 46 46 47 47 47 48 49 50 51 52 53 54 54 54 54 55 55 56 56 57 57 58 58 59 59 60 60 59 58 56 55 54 54 54 54 53 53 52 51 50 48 46 45 43 42 40 39 38 37 36 35 34 34 33 33 33 32 32 31 31 31 30 30 30 30 29 29 29 29 30 30 30
48 47 47 47 47 46 46 46 46 46 46 46 46 46 46 47 47 47 48 49 50 51 52 53 54 54 55 55 55 55 56 56 57 57 58 58 59 59 59 59 59 58 56 55 54 53 53 53 52 52 52 51 50 48 47 45 44 43 42 40 39 38 37 37 36 36 35 35 35 34 34 33 33 32 32 32 31 31 31 31 31 31 31 31 32 32
48 48 47 47 47 47 46 46 46 46 46 46 46 46 46 47 47 48 49 50 51 52 53 54 54 55 55 56 56 56 57 57 58 58 58 58 59 59 59 59 58 56 55 54 53 52 52 52 51 51 50 50 48 47 46 45 44 43 42 41 40 39 38 38 37 37 37 36 36 35 35 34 34 33 33 33 33 33 32 33 33 33 33 33 33 34
49 48 48 47 47 47 46 47 46 46 46 46 46 46 47 47 48 49 51 52 53 53 53 54 55 56 56 57 57 58 58 58 58 58 58 59 59 59 58 58 56 55 53 53 52 52 51 51 51 50 50 49 48 47 46 45 44 43 42 41 40 40 39 39 39 38 38 38 37 37 36 36 35 35 34 34 34 34 34 34 34 34 35 35 35 35
49 49 48 48 47 47 46 46 46 46 45 46 46 47 48 48 49 50 52 53 54 54 54 55 56 56 57 57 58 58 58 58 59 59 59 59 59 58 57 56 55 54 52 52 51 51 51 50 50 50 49 48 47 47 46 45 44 43 43 42 41 41 40 40 40 39 39 39 38 38 37 37 36 36 36 35 35 35 35 35 36 36 36 36 37 37
49 49 48 47 47 46 46 45 45 45 46 46 47 48 49 50 51 52 53 54 54 55 55 55 56 57 57 58 58 58 58 58 58 59 59 59 58 57 56 55 54 53 52 51 51 51 50 50 49 49 49 48 47 47 46 46 45 44 43 43 42 42 41 41 41 40 40 40 39 39 38 38 37 37 37 37 37 37 37 37 37 37 37 38 38 38
49 49 48 47 47 46 46 46 46 46 47 47 48 49 51 52 53 53 54 55 55 55 55 56 57 57 58 58 58 58 58 58 58 58 58 58 57 56 54 53 53 52 51 50 50 50 50 49 49 49 49 48 48 47 47 46 45 45 44 44 43 43 42 42 42 41 41 41 40 40 39 39 39 38 38 38 38 38 38 38 38 38 38 39 39 39
50 49 48 48 47 46 46 46 47 47 48 49 50 51 52 54 54 55 55 55 56 56 56 56 57 57 58 58 58 58 58 58 58 58 57 57 56 55 53 52 52 52 51 50 50 50 50 49 49 49 48 48 48 48 47 47 46 46 45 44 44 43 43 43 42 42 42 41 41 41 40 40 40 39 39 39 39 39 39 39 39 39 40 40 40 41
50 50 49 48 47 47 47 47 48 49 50 51 52 53 54 55 55 56 56 56 56 57 57 57 58 58 58 58 58 57 57 57 58 58 57 56 55 54 52 51 51 51 51 50 50 50 49 49 49 49 48 48 48 48 48 47 47 46 46 45 45 44 44 43 43 43 42 42 42 41 41 41 40 40 40 40 40 40 40 40 40 40 41 41 41 41
51 50 50 49 48 48 48 49 49 50 51 53 54 54 55 56 56 56 56 57 57 57 57 57 58 58 58 58 57 57 57 57 57 57 56 55 54 53 51 51 50 51 51 50 50 49 49 49 48 48 48 48 48 48 48 48 47 47 46 46 45 45 44 44 44 43 43 43 42 42 42 42 41 41 41 41 41 41 41 41 41 41 42 42 42 42
52 51 50 50 50 50 50 50 51 52 53 54 55 56 56 57 57 57 57 57 57 57 58 58 58 58 57 57 57 57 57 57 57 56 55 53 53 52 51 50 50 50 50 50 49 49 49 48 48 48 48 49 49 49 49 48 48 48 47 47 46 45 45 45 44 44 43 43 43 43 42 42 42 42 42 42 41 41 42 42 42 42 42 43 43 43
53 52 51 51 51 51 52 52 53 54 55 55 56 57 57 57 57 57 57 57 57 58 58 58 58 58 57 57 57 58 57 57 56 55 54 52 52 51 51 50 49 50 50 49 49 48 48 48 48 48 49 49 49 49 49 49 49 48 48 47 47 46 45 45 45 44 44 44 43 43 43 43 42 42 42 42 42 42 42 42 43 43 43 43 44 44
53 53 53 53 53 53 54 55 55 55 56 57 57 57 58 58 57 57 57 58 58 58 58 58 58 58 57 57 57 58 57 56 55 53 53 52 51 51 50 49 49 49 49 49 48 48 48 48 48 49 49 49 49 50 49 49 49 49 48 48 47 47 46 46 45 45 44 44 44 44 43 43 43 43 43 43 43 43 43 43 43 44 44 44 44 45
54 54 54 54 54 55 56 56 57 57 57 58 58 58 58 58 58 58 58 58 58 58 58 58 58 58 57 57 58 58 57 55 54 52 52 51 51 51 50 49 49 49 49 48 48 47 48 48 48 49 49 50 50 50 50 50 49 49 49 48 47 47 46 46 46 45 45 44 44 44 44 43 43 43 43 43 43 43 44 44 44 44 45 45 45 46
55 55 55 55 55 56 57 57 58 58 58 58 59 59 58 58 58 58 58 58 58 58 58 58 58 58 58 58 58 58 56 55 53 52 51 51 51 51 50 49 49 49 48 48 47 47 48 48 49 49 49 50 50 50 50 50 50 49 49 48 48 47 47 46 46 45 45 45 44 44 44 44 43 43 43 44 44 44 44 44 45 45 45 46 46 47
56 56 57 57 57 57 58 58 59 59 59 59 59 59 59 59 59 59 59 59 59 59 59 59 58 58 58 58 57 56 55 53 52 51 50 50 50 50 50 49 48 48 49 48 47 47 48 49 49 50 50 50 50 50 50 50 50 50 49 49 48 48 47 47 46 46 45 45 44 44 44 44 44 44 44 44 44 44 45 45 45 46 46 47 47 48
58 58 59 59 59 59 59 59 60 60 60 60 60 60 60 59 59 59 60 60 59 59 59 58 58 58 58 56 55 54 53 52 50 49 49 49 50 50 50 49 48 48 49 49 48 48 48 49 50 50 50 50 50 50 50 50 50 50 49 49 48 48 47 47 46 46 45 45 45 44 44 44 44 44 44 44 44 45 45 45 46 46 47 47 48 49
59 60 60 60 60 60 60 60 61 61 61 60 60 60 60 60 59 59 59 59 59 59 58 58 58 57 56 54 53 52 51 50 49 48 48 48 49 49 49 48 47 48 49 49 49 48 49 50 50 50 50 50 50 50 50 50 50 50 49 49 48 48 47 47 46 46 45 45 45 44 44 44 44 44 44 44 45 45 45 46 46 47 48 48 49 50
61 61 61 61 61 61 61 61 61 61 61 61 60 60 60 60 59 59 59 59 59 58 57 57 57 56 54 52 51 50 49 49 48 48 48 47 48 48 49 48 47 47 48 49 49 49 49 50 50 50 50 50 50 50 50 50 50 49 49 49 48 48 48 47 47 46 45 45 45 44 44 44 44 44 44 45 45 45 46 47 47 48 49 49 50 51
62 62 62 62 62 61 62 62 62 62 61 61 61 60 60 60 59 59 59 59 58 57 56 56 55 53 51 50 49 49 48 47 47 47 47 46 47 48 48 47 47 47 48 49 49 50 50 50 50 50 50 50 50 49 49 49 49 49 49 49 48 48 47 47 47 46 46 45 45 45 45 44 44 45 45 45 46 46 47 47 48 49 49 50 51 52
62 62 62 62 62 62 62 62 62 62 62 61 61 61 60 60 59 59 59 59 57 56 55 54 52 51 49 49 48 48 47 47 47 46 46 46 46 47 47 46 46 47 48 48 49 50 50 50 49 49 50 50 49 49 49 49 49 48 48 48 48 48 47 47 46 46 46 45 45 45 45 45 45 45 46 46 47 47 48 48 49 50 50 51 52 53
63 62 63 63 63 63 63 62 62 62 62 61 61 61 60 60 60 59 59 58 56 54 53 52 50 49 48 47 47 47 46 46 46 45 45 45 46 47 46 46 46 47 47 48 48 50 50 50 49 49 49 49 49 49 48 48 48 48 48 48 47 47 47 47 46 46 46 45 45 45 45 45 46 46 47 47 48 49 49 50 50 51 52 53 54 55
63 63 63 63 63 63 63 62 62 62 61 61 61 60 60 60 59 58 57 56 54 52 50 49 48 47 46 46 45 45 46 46 45 44 44 44 45 46 46 45 46 47 47 47 47 49 50 50 50 49 48 48 48 48 47 47 47 47 47 47 47 47 46 46 46 46 46 46 46 46 46 46 47 47 48 49 49 50 50 51 51 52 53 54 56 57
63 63 63 63 63 63 62 62 62 62 61 61 60 60 59 58 57 56 55 53 51 50 48 47 47 46 45 45 44 44 45 45 45 44 43 43 45 46 45 45 46 47 47 47 47 47 49 50 50 49 48 47 47 47 47 46 46 46 46 46 46 46 46 46 46 46 46 46 46 46 47 47 48 49 49 50 50 51 52 52 53 54 55 56 58 59
63 63 63 63 63 62 62 62 61 61 60 60 59 58 57 56 55 53 52 50 49 48 46 46 45 45 44 44 43 44 44 44 44 43 42 43 44 45 45 45 45 46 47 47 47 47 48 48 49 49 48 47 47 46 46 46 46 46 45 46 46 46 45 45 45 45 46 46 46 47 47 48 49 50 50 51 52 52 53 54 55 56 57 58 60 60
63 63 63 62 62 61 61 61 60 59 59 58 57 56 54 53 52 50 49 48 47 46 45 44 44 44 43 43 43 43 43 43 43 43 42 43 44 45 45 45 45 46 47 47 47 47 47 47 47 47 47 47 46 46 45 45 45 45 45 45 45 45 45 45 45 45 46 46 47 47 48 49 50 50 51 52 53 54 55 56 58 59 60 60 61 62
63 62 62 61 61 60 59 59 58 57 57 56 54 53 52 50 49 48 47 46 45 44 44 43 43 43 42 42 42 42 42 42 42 42 42 43 44 45 45 45 46 46 46 47 47 47 47 47 47 47 46 46 46 45 45 44 44 44 44 44 44 44 44 45 45 46 46 47 47 48 49 49 50 51 52 53 55 56 57 58 60 61 61 62 63 63
62 61 60 60 59 58 57 57 56 55 54 53 52 50 49 48 47 46 45 44 44 43 43 43 42 42 42 41 41 41 42 42 42 42 42 43 43 44 45 45 46 46 46 46 47 46 46 46 46 46 46 45 45 45 44 44 44 44 44 44 44 44 45 45 46 46 47 47 48 49 49 50 51 52 53 55 56 58 59 60 61 62 63 63 63 64
60 59 59 58 57 56 55 54 53 52 51 50 49 48 47 46 45 44 44 43 43 42 42 42 41 41 41 41 41 41 41 41 42 42 42 43 43 44 44 45 46 45 45 45 46 46 46 46 45 45 45 44 44 44 44 44 43 43 43 44 44 45 45 46 46 47 48 48 49 49 50 51 52 53 55 56 58 59 60 61 62 63 63 64 64 64
58 57 56 55 54 53 52 52 51 49 48 48 47 46 45 44 44 43 43 42 42 42 41 41 41 41 41 40 40 40 41 41 41 42 42 43 43 43 44 45 45 45 45 45 45 45 45 45 44 44 44 44 44 43 43 43 43 43 43 44 44 45 46 46 47 47 48 48 49 50 51 52 53 55 56 58 59 60 61 62 62 63 63 64 64 64
56 55 54 53 52 51 50 49 48 47 46 45 45 44 43 43 42 42 42 41 41 41 41 40 40 40 40 40 40 40 41 41 41 42 42 43 43 44 44 45 45 45 45 44 44 44 44 44 44 43 43 43 43 43 43 43 43 44 44 45 45 46 46 47 47 48 48 49 50 51 52 53 55 56 58 59 60 61 61 62 62 63 63 64 64 65
53 52 52 51 50 49 48 47 46 45 44 44 43 43 42 42 41 41 41 41 40 40 40 40 40 40 40 40 40 40 41 41 41 42 42 43 43 44 44 44 44 44 44 44 43 43 43 43 43 43 43 43 43 43 43 44 44 44 45 46 46 47 47 47 48 48 49 50 51 52 54 55 56 57 58 59 60 61 61 62 62 63 63 64 65 65
51 50 50 49 48 47 46 45 44 44 43 42 42 41 41 41 40 40 40 40 40 40 40 40 40 40 40 40 40 40 41 41 41 42 42 43 43 44 44 44 44 44 43 43 43 42 42 42 42 42 42 42 43 43 44 44 45 45 46 46 47 47 47 48 48 49 50 51 52 53 55 56 57 58 59 60 60 61 61 62 62 63 64 65 65 66
48 48 47 47 46 45 44 43 43 42 41 41 40 40 40 40 39 39 39 39 39 39 39 39 39 40 40 40 40 40 41 41 41 42 42 43 43 43 43 43 43 43 42 42 42 42 41 41 41 42 42 42 43 44 45 45 45 46 46 46 47 47 48 48 49 50 51 52 54 55 56 57 58 58 59 59 60 61 61 62 63 64 65 66 67 67
47 46 46 45 44 43 43 42 41 41 40 40 40 40 40 39 39 39 39 39 39 39 39 39 39 40 40 40 41 41 41 41 42 42 42 43 43 43 43 43 42 42 42 41 41 41 41 41 42 42 43 43 44 44 45 45 46 46 46 46 47 48 48 49 50 51 52 54 55 56 57 57 58 58 59 59 60 60 61 62 63 64 65 66 67 68
45 44 44 43 42 42 41 40 40 40 39 39 39 39 39 39 38 38 38 39 39 39 39 39 39 40 40 40 41 41 41 41 42 42 42 43 43 42 42 42 42 41 41 41 41 41 41 42 42 43 43 44 44 45 45 46 46 46 46 47 47 48 49 50 51 53 54 55 56 56 57 57 58 58 58 59 60 61 62 63 64 65 66 67 68 69
43 43 42 41 41 40 39 39 39 39 38 39 39 39 38 38 38 38 38 39 39 39 39 39 40 40 40 41 41 41 41 42 42 42 42 42 42 42 42 41 41 41 41 41 41 41 42 42 43 43 44 44 45 45 46 46 46 46 47 47 48 49 50 52 53 54 55 55 56 57 57 57 58 58 58 59 60 61 62 63 65 66 67 68 68 69
41 41 40 40 39 39 39 39 38 38 38 38 38 38 38 38 38 38 38 39 39 39 39 40 40 40 41 41 41 41 41 42 42 42 41 41 41 41 41 41 40 40 41 41 42 42 43 43 44 44 44 45 45 45 46 46 46 47 48 48 49 50 52 53 54 55 55 56 56 57 57 57 58 58 58 59 60 61 63 64 65 66 67 68 68 68
40 40 39 39 38 38 38 38 38 38 38 38 38 38 38 38 38 38 38 39 39 39 40 40 40 40 41 41 41 41 41 41 41 41 41 41 41 40 40 40 40 41 41 42 42 43 43 44 44 44 45 45 45 45 46 46 47 48 49 50 50 52 53 54 54 55 56 56 56 57 57 57 58 58 59 60 61 62 64 65 66 67 67 67 67 67
39 39 38 38 38 38 38 37 37 37 37 38 38 38 38 38 38 38 39 39 39 40 40 40 41 41 41 41 41 41 41 41 41 41 40 40 40 40 40 40 41 41 42 42 43 43 44 44 44 45 45 45 45 46 46 47 48 48 50 51 52 53 53 54 55 55 56 56 56 57 57 58 58 59 60 61 62 63 64 65 66 67 67 67 66 66
38 38 38 37 37 37 37 37 37 37 37 37 37 38 38 38 38 38 39 39 40 40 40 41 41 41 41 41 41 41 41 40 40 40 40 40 40 40 40 40 41 41 42 42 43 43 44 44 44 45 45 45 46 47 47 48 49 50 51 52 52 53 54 55 55 56 56 56 57 57 58 58 59 60 61 62 63 64 64 65 66 66 66 66 66 65
37 37 37 37 37 37 37 37 37 37 37 37 37 37 38 38 38 39 39 40 40 40 41 41 41 41 41 41 40 40 40 40 40 40 40 40 40 40 40 41 41 42 42 43 43 43 44 44 45 45 45 46 47 48 48 49 50 51 52 53 53 54 55 55 55 56 56 57 57 58 59 60 61 61 62 63 63 64 65 65 65 65 65 65 65 65
37 37 37 37 37 37 37 37 37 37 37 37 37 37 38 38 39 39 39 40 40 40 41 41 41 40 40 40 40 40 40 40 40 40 40 40 40 41 41 41 42 42 42 43 43 43 44 44 45 45 46 47 48 49 50 51 51 52 53 53 54 55 55 55 56 56 57 57 58 59 60 61 62 63 63 64 64 64 65 64 64 65 65 64 64 64
Wind_Direction
243 244 245 246 247 249 250 251 252 254 256 257 258 260 261 262 263 264 265 267 268 269 270 271 272 273 274 275 276 277 278 279 280 281 281 282 283 284 284 285 285 286 287 289 290 292 294 294 295 295 295 296 297 298 300 301 303 304 305 306 306 306 306 306 306 305 305 305 305 306 306 307 308 309 310 311 312 312 312 313 313 314 314 315 315 315
244 245 246 247 248 249 250 251 253 254 256 257 258 260 261 262 263 264 265 267 268 269 270 271 272 274 275 275 276 277 278 279 280 281 282 282 283 283 284 285 286 287 288 290 292 293 294 294 294 295 295 296 297 299 301 302 303 304 305 306 306 306 306 305 304 304 303 303 303 303 304 305 306 307 307 308 308 309 309 310 310 311 312 312 312 312
244 245 246 247 248 250 251 252 253 254 256 257 259 260 261 262 263 265 266 267 268 269 271 272 273 274 275 276 277 278 278 279 280 281 281 282 283 283 284 285 286 288 289 291 293 294 294 294 294 295 296 297 298 300 301 303 304 304 305 305 305 305 304 303 302 302 301 301 301 301 301 302 303 304 304 305 305 306 306 307 308 309 309 310 310 310
245 246 247 248 249 250 251 252 254 255 256 258 259 260 261 263 264 265 266 267 269 270 271 272 273 274 275 276 277 278 279 279 280 281 281 282 283 283 284 286 287 289 291 292 293 294 294 294 294 295 296 298 299 301 302 303 304 304 304 304 304 303 302 301 300 299 298 298 298 298 299 300 300 301 301 302 303 303 304 305 306 307 308 308 309 309
245 246 247 248 249 250 251 253 254 256 257 258 260 261 262 263 265 266 267 268 269 270 271 272 273 274 275 276 277 278 279 280 280 281 281 282 283 284 285 286 288 290 292 293 293 293 293 293 294 295 297 298 300 301 302 303 304 304 303 303 302 301 300 299 297 296 296 296 296 296 297 297 298 298 299 300 300 301 302 303 304 305 306 307 307 307
246 247 248 249 250 251 252 253 255 256 258 259 260 262 263 264 265 266 267 268 269 270 271 272 274 275 276 277 278 279 279 280 280 281 282 282 283 284 286 287 289 291 292 293 293 293 293 293 294 296 297 299 301 302 302 303 303 303 302 301 300 299 297 296 295 294 294 294 294 294 295 295 296 296 297 298 299 300 301 302 303 304 305 305 306 306
246 247 248 249 250 251 252 254 255 257 258 260 261 262 263 264 266 267 268 268 269 270 272 273 274 275 276 277 278 279 279 280 281 281 282 283 284 285 286 288 290 291 292 292 292 292 292 293 295 296 298 300 301 301 302 302 301 301 300 299 298 297 295 294 293 292 292 292 292 293 293 294 294 295 296 297 298 299 300 301 302 303 303 304 304 304
247 248 249 250 251 252 253 254 256 257 259 260 262 263 264 265 266 266 267 268 270 271 272 273 274 276 277 277 278 279 280 280 281 281 282 283 284 286 287 289 290 291 292 291 291 291 292 293 295 297 298 299 300 301 301 300 300 299 298 297 296 294 293 292 292 291 291 291 291 292 292 293 293 294 295 296 297 298 299 300 301 302 302 303 303 303
248 249 249 250 251 253 254 255 257 258 260 261 262 263 264 265 266 266 268 269 270 271 273 274 275 276 277 277 278 279 280 280 281 281 283 284 285 286 288 289 290 291 291 290 290 291 292 293 295 297 298 299 299 299 299 298 298 297 296 295 294 293 292 291 291 290 290 290 290 291 291 292 292 293 294 295 297 298 299 300 300 301 302 302 302 302
248 249 250 251 252 253 255 256 258 259 260 261 262 263 264 265 266 267 269 270 271 272 273 274 275 276 277 277 278 279 279 280 281 282 283 284 285 287 288 289 290 290 289 289 290 291 292 293 295 296 297 298 298 298 297 296 296 295 294 293 292 291 291 290 290 289 289 290 290 290 290 291 292 293 294 295 296 297 298 299 300 300 301 301 301 301
249 250 251 252 253 254 256 257 258 259 260 261 262 263 264 265 267 268 270 271 272 272 273 274 275 276 277 277 278 278 279 280 281 282 283 284 286 287 288 289 289 289 289 289 289 290 292 293 295 296 296 297 296 296 295 294 294 293 292 291 291 290 290 289 289 289 289 289 289 289 290 291 291 293 294 295 296 297 298 298 299 299 300 300 300 300
249 250 252 253 254 255 256 257 258 259 260 261 262 263 264 266 267 269 271 272 272 273 273 274 275 275 276 277 278 278 279 280 281 282 283 285 286 287 288 288 288 288 288 288 289 290 291 293 294 295 295 295 295 294 293 293 292 291 291 290 290 289 289 288 288 288 288 288 288 289 290 290 291 292 293 294 295 296 297 297 298 298 298 299 299 298
250 251 252 253 254 255 256 257 258 259 259 261 262 264 266 267 268 270 271 272 272 273 274 274 275 275 276 276 277 278 279 280 281 282 283 285 286 287 288 287 287 287 287 287 288 290 291 292 293 294 294 293 293 293 292 291 291 290 290 289 289 288 288 288 287 287 287 288 288 288 289 290 291 292 293 294 294 295 296 296 296 297 297 297 297 297
250 251 252 253 254 255 255 256 258 259 260 261 263 264 266 267 269 270 271 272 272 273 274 274 275 275 276 276 277 278 279 280 281 282 284 285 286 287 287 286 286 286 286 287 288 289 290 291 292 293 293 292 292 291 291 290 290 289 289 288 288 287 287 287 287 287 287 287 288 288 289 289 290 291 292 293 293 294 295 295 295 295 296 296 296 296
249 250 251 252 253 254 255 256 257 259 260 262 263 265 267 268 269 270 271 272 272 273 273 274 274 275 276 276 277 278 279 280 281 283 284 285 286 286 285 285 285 285 286 286 287 288 289 290 291 291 292 291 291 290 290 289 289 288 288 287 287 287 286 286 286 286 286 286 287 288 288 289 290 291 291 292 292 293 293 294 294 294 295 295 295 295
249 249 250 251 252 253 255 256 258 260 261 263 264 266 267 268 269 270 271 271 272 273 273 274 274 275 275 276 277 278 279 281 282 283 285 285 285 285 284 284 284 284 285 286 287 288 289 290 290 291 291 290 290 290 289 289 288 288 287 287 286 286 285 285 285 285 286 286 286 287 288 288 289 290 290 291 291 292 292 293 293 293 294 294 294 295
248 248 249 250 252 254 255 256 258 260 262 264 265 267 267 268 269 270 270 271 272 273 273 273 274 275 276 276 277 278 279 281 283 284 284 284 284 283 283 283 283 284 285 286 286 287 288 289 290 290 290 290 289 289 288 288 287 287 287 286 286 285 285 284 284 285 285 285 286 286 287 288 288 289 289 290 290 291 291 292 292 293 293 294 294 294
247 248 249 250 252 254 256 258 260 262 264 265 266 267 267 268 269 269 270 271 272 272 273 273 274 274 275 277 277 278 280 282 283 283 283 283 283 282 282 282 283 283 284 285 286 287 288 289 289 289 289 289 288 288 287 287 287 286 286 285 285 284 284 284 284 284 284 284 285 285 286 287 287 288 288 289 289 290 290 291 291 292 293 293 293 294
247 248 249 251 253 255 257 259 261 263 265 266 267 267 268 268 269 269 270 271 272 272 273 273 274 275 276 277 278 279 281 282 283 282 282 281 281 281 281 281 282 282 283 284 286 287 288 288 289 289 288 288 287 287 286 286 286 285 285 285 284 284 283 283 283 283 284 284 284 285 285 286 286 287 287 288 289 289 290 290 291 292 292 293 293 293
247 248 249 251 253 256 258 260 262 264 265 266 267 267 268 268 269 269 270 271 271 272 272 273 274 275 276 277 278 279 281 282 282 281 280 280 280 280 280 280 281 282 283 284 285 286 287 288 288 288 287 287 286 286 286 285 285 285 284 284 284 283 283 283 283 283 283 283 284 284 284 285 285 286 286 287 288 289 289 290 291 291 292 292 293 293
247 248 250 251 254 257 259 261 263 265 265 266 266 267 267 268 269 269 270 270 271 271 272 273 274 275 276 278 279 280 281 281 280 279 279 279 278 278 279 279 280 281 282 283 285 286 286 287 287 286 286 286 285 285 285 284 284 284 284 283 283 283 282 282 282 282 283 283 283 283 284 284 285 285 286 287 287 288 289 290 290 291 291 292 293 293
248 249 251 253 255 258 260 262 263 264 265 265 266 266 267 268 268 269 269 270 270 271 272 274 275 275 277 278 279 280 280 280 279 278 277 277 277 277 278 278 279 280 281 283 284 285 286 286 286 285 285 285 284 284 284 284 283 283 283 283 282 282 282 282 282 282 282 282 283 283 283 284 284 285 286 287 287 288 289 289 290 291 291 292 292 293
249 251 253 255 258 260 261 262 263 263 264 264 265 266 266 267 267 268 268 269 270 271 272 273 274 275 277 278 279 279 279 278 277 276 276 276 276 277 277 278 279 280 281 282 284 285 285 285 284 284 284 284 283 283 283 283 283 282 282 282 282 281 281 281 281 281 282 282 282 283 283 283 284 285 286 286 287 288 289 289 290 291 291 292 292 293
251 253 256 258 259 261 261 262 262 262 263 263 264 264 265 266 266 267 268 269 270 271 272 273 274 276 277 278 278 278 277 276 275 275 275 275 276 276 277 278 279 280 281 282 283 284 284 284 283 283 283 283 282 282 282 282 282 282 281 281 281 281 281 281 281 281 281 282 282 282 283 284 284 285 286 286 287 288 289 289 290 291 291 292 292 293
253 256 258 259 260 261 261 261 261 261 262 262 263 264 265 265 266 267 267 268 269 271 272 274 275 276 276 277 276 276 275 274 274 274 274 275 276 277 278 279 280 281 282 283 283 284 284 283 283 282 282 282 282 282 282 282 281 281 281 281 281 281 281 281 281 281 281 282 282 283 283 284 284 285 286 287 287 288 289 289 290 291 291 292 292 292
255 257 259 260 260 260 260 260 261 261 261 262 263 264 264 265 266 267 268 269 270 271 273 274 275 275 275 275 274 274 273 273 273 273 274 275 276 277 278 280 281 282 283 283 284 284 283 283 283 282 282 282 281 281 281 281 281 281 280 280 280 280 281 281 281 281 282 282 282 283 284 284 285 285 286 287 288 288 289 290 290 291 291 292 292 292
256 258 259 259 259 259 259 260 260 260 261 262 263 263 264 265 266 268 269 270 271 272 273 274 274 274 273 273 272 272 272 272 273 273 274 275 277 278 279 281 282 282 283 283 284 284 283 283 283 282 282 282 281 281 281 281 281 281 280 280 280 281 281 281 281 282 282 283 283 283 284 285 285 286 286 287 288 288 289 290 290 291 291 292 292 293
257 258 258 258 259 259 259 259 259 260 261 261 262 263 264 265 267 268 269 270 271 272 272 272 272 271 271 270 270 270 271 272 272 274 275 276 277 278 279 281 282 283 283 284 284 284 283 283 283 283 282 282 282 282 281 281 281 281 281 281 281 281 281 282 282 282 283 283 284 284 285 285 286 286 287 288 288 289 290 290 291 291 292 292 293 294
257 257 257 258 258 258 258 259 259 260 261 261 262 263 264 266 267 268 269 270 270 271 270 270 269 269 268 268 269 270 270 271 272 274 276 277 278 279 280 282 283 283 283 284 284 284 283 283 283 283 283 283 282 282 282 282 282 281 281 281 282 282 282 282 283 283 283 284 284 285 285 286 287 287 288 289 289 290 291 291 292 292 293 293 294 295
256 256 256 257 257 257 258 258 259 260 261 261 263 264 265 266 267 268 269 269 269 269 268 267 267 266 266 267 268 269 270 271 272 274 276 277 278 279 280 282 282 283 283 284 284 284 284 284 283 283 283 283 283 283 282 282 282 282 282 282 282 282 282 283 283 283 284 284 285 286 286 287 288 289 290 290 291 291 292 292 293 293 294 295 295 296
255 255 255 256 256 257 258 258 259 260 261 262 263 264 265 267 268 268 268 268 267 266 265 265 265 265 265 266 267 269 270 272 273 274 276 277 278 279 280 281 282 283 283 283 283 284 284 284 284 284 283 283 283 283 283 283 283 283 283 283 283 283 283 283 284 284 285 285 286 287 288 289 290 291 291 292 292 293 293 294 294 295 295 296 297 297
254 254 255 255 256 257 258 258 259 260 261 262 263 264 265 266 267 267 266 266 265 264 263 263 263 264 265 266 267 269 270 272 273 275 276 277 278 279 280 281 282 282 283 283 283 283 284 284 285 285 284 284 284 284 284 283 283 283 283 283 283 283 284 284 284 285 286 287 288 289 290 291 291 292 293 293 294 294 294 295 295 296 296 297 298 298
253 254 255 255 256 257 258 258 259 260 261 262 263 264 265 265 265 264 263 262 262 261 261 261 262 263 265 266 267 269 270 272 274 275 276 277 278 279 280 281 281 282 282 283 283 283 283 284 284 285 285 285 284 284 284 284 284 284 284 284 284 284 285 285 286 286 287 288 289 290 291 292 293 293 294 294 295 295 296 296 297 297 298 298 298 299
253 254 254 255 256 257 258 258 259 260 261 262 263 263 263 262 262 261 260 259 259 259 260 261 262 263 265 266 268 269 271 272 274 275 276 277 278 279 280 280 281 281 282 282 283 283 283 283 284 284 285 285 285 285 284 284 284 284 284 284 285 285 286 286 287 288 289 290 290 291 292 293 294 295 295 296 296 296 297 297 298 298 298 299 299 299
253 254 254 255 256 257 257 258 259 260 260 261 261 261 260 259 258 258 257 257 257 258 259 260 262 263 265 267 268 270 271 273 274 275 276 277 278 279 280 280 281 281 282 282 282 283 283 283 283 284 284 285 285 285 285 285 285 285 285 285 286 286 287 288 288 289 290 291 292 293 294 294 295 296 296 297 297 298 298 298 299 299 299 299 299 300
253 253 254 255 255 256 257 257 258 258 259 259 258 258 257 256 255 255 255 256 257 258 259 261 262 263 265 267 268 270 271 273 274 275 276 277 278 279 280 280 281 281 281 282 282 282 283 283 283 283 284 284 285 285 285 285 285 285 286 286 287 287 288 289 290 290 291 292 293 294 295 295 296 297 297 298 298 299 299 299 299 300 300 300 300 300
252 253 253 254 255 255 256 256 256 256 256 256 255 254 254 253 253 253 254 255 256 258 259 261 262 264 265 267 268 270 271 273 274 276 276 277 278 279 279 280 280 281 281 281 282 282 282 283 283 283 284 284 284 285 285 286 286 286 287 287 288 289 289 290 291 292 293 293 294 295 296 296 297 298 298 299 299 299 300 300 300 300 300 300 300 300
251 252 253 253 254 254 254 254 254 254 253 253 252 252 251 251 252 252 253 255 256 258 259 261 262 264 266 267 268 270 271 273 274 276 276 277 278 279 279 280 280 281 281 281 281 282 282 282 283 283 284 284 284 285 286 286 287 287 288 289 289 290 291 292 292 293 294 295 295 296 297 297 298 299 299 299 300 300 300 300 300 300 300 300 300 300
251 251 252 252 252 252 252 252 251 251 250 250 250 250 250 250 251 252 253 255 256 258 259 261 263 264 266 267 269 270 272 273 274 275 276 277 278 279 279 279 280 280 281 281 281 281 282 282 283 283 284 285 285 285 286 287 287 288 289 290 290 291 292 293 293 294 295 295 296 297 298 298 299 299 300 300 300 300 300 300 300 300 300 300 301 301
250 250 250 250 250 250 249 249 249 248 248 247 248 248 248 249 250 252 253 255 257 258 260 261 263 264 266 268 269 270 272 273 274 275 276 277 278 278 278 279 279 280 280 280 280 281 281 282 283 283 284 285 286 286 287 288 288 289 290 291 292 292 293 293 294 295 296 296 297 298 299 299 300 300 300 300 300 300 300 300 300 300 300 301 301 301
248 248 248 248 248 247 247 246 246 246 245 245 246 246 247 249 250 252 254 255 257 258 260 262 263 265 266 268 269 270 272 273 274 275 276 276 277 277 278 278 278 279 279 280 280 281 281 282 283 284 284 285 286 287 288 289 290 290 291 292 293 293 294 294 295 296 297 297 298 299 299 300 300 300 300 300 300 300 300 300 300 301 301 301 302 302
246 246 246 245 245 244 244 244 243 243 243 243 244 245 247 249 250 252 254 256 257 259 260 262 263 265 267 268 269 271 272 273 274 275 275 276 276 276 277 277 278 278 279 280 280 281 281 282 283 284 285 286 287 288 289 290 290 291 292 293 293 294 295 295 296 297 298 298 299 299 300 300 300 300 300 300 300 300 300 300 301 301 301 302 302 302
244 243 243 243 242 242 241 241 241 241 241 242 244 245 247 249 250 252 254 256 258 259 261 262 264 265 267 268 270 271 272 273 273 274 275 275 275 276 276 277 277 278 279 280 280 281 282 283 283 284 286 287 288 288 289 290 291 292 292 293 294 295 295 296 297 298 298 299 299 300 300 300 300 300 300 300 300 300 301 301 301 301 302 302 303 303
241 241 240 240 239 239 238 238 239 239 241 242 244 245 247 249 251 252 254 256 258 259 261 263 264 266 267 268 270 271 272 273 273 273 274 275 275 275 276 277 277 278 279 280 281 282 283 283 284 285 286 287 288 289 290 291 292 292 293 294 294 295 296 297 297 298 299 299 299 300 300 300 300 300 300 300 300 301 301 301 302 302 302 303 303 303
238 238 237 237 236 236 236 237 238 239 240 242 244 246 248 249 251 253 255 257 258 260 262 263 265 266 267 268 269 271 272 272 273 273 274 274 275 275 276 277 278 279 279 280 281 282 283 284 285 286 287 287 288 289 290 291 292 293 294 294 295 296 296 297 298 299 299 300 300 300 300 300 300 300 300 301 301 301 301 302 302 302 302 303 303 303
235 234 234 234 234 234 235 236 237 239 241 243 244 246 248 250 252 253 255 257 259 261 262 264 265 266 267 269 270 271 271 272 272 273 273 274 275 275 276 277 278 279 280 281 282 283 284 285 286 287 287 288 289 290 291 292 293 293 294 295 296 296 297 298 299 299 300 300 300 300 300 300 300 300 301 301 301 302 302 302 302 303 303 303 303 303
231 231 231 231 232 233 235 236 238 239 241 243 245 247 249 251 252 254 256 258 259 261 263 264 266 267 268 269 270 271 271 272 272 273 273 274 274 275 276 277 278 279 281 282 283 284 284 285 286 287 288 289 290 291 291 292 293 294 295 296 296 297 298 299 299 300 300 300 300 300 300 300 300 301 301 301 302 302 302 303 303 303 303 303 303 304
229 229 229 230 231 233 234 236 238 240 242 244 246 248 250 252 253 255 257 259 260 262 263 265 266 267 268 269 270 271 271 272 272 272 273 274 274 275 276 278 279 280 281 282 283 284 285 286 287 288 289 289 290 291 292 293 293 294 295 296 297 298 298 299 299 300 300 300 300 300 300 300 301 301 301 302 302 303 303 303 304 304 304 304 304 304
227 227 228 230 231 233 235 237 239 241 243 245 247 249 251 253 254 256 258 260 261 263 264 266 267 268 269 269 270 271 271 271 272 272 273 273 274 275 277 278 279 280 281 282 283 284 285 286 287 288 289 290 291 292 293 293 294 295 296 297 298 298 299 299 299 299 300 300 300 300 300 301 301 302 302 303 303 304 304 304 304 304 304 304 304 304
226 227 228 230 232 234 236 238 240 242 244 246 248 250 252 254 256 257 259 261 263 264 265 266 267 268 269 269 270 270 271 271 272 272 273 274 275 276 277 278 279 280 281 282 283 285 286 287 288 289 290 291 292 293 293 294 295 296 296 297 298 298 299 299 299 300 300 300 300 301 301 302 302 303 303 304 304 304 305 305 305 304 304 304 304 305
225 227 229 230 232 234 236 239 241 243 245 247 249 252 253 255 257 259 260 262 264 265 266 267 267 268 268 269 269 270 270 271 271 272 273 274 275 276 277 278 280 281 282 283 284 285 287 288 289 290 291 292 293 293 294 295 296 296 297 298 298 299 299 299 300 300 300 301 301 302 302 303 303 304 304 304 305 305 305 305 305 305 304 305 305 305
Height
5740 5740 5741 5741 5742 5743 5744 5745 5746 5746 5747 5748 5749 5749 5749 5750 5750 5751 5751 5751 5752 5752 5752 5752 5752 5752 5752 5752 5751 5751 5751 5750 5750 5749 5748 5748 5747 5746 5745 5745 5744 5743 5742 5741 5740 5738 5737 5736 5734 5732 5731 5730 5728 5727 5725 5724 5722 5720 5718 5716 5713 5711 5709 5707 5706 5704 5702 5701 5700 5698 5697 5696 5694 5693 5692 5691 5690 5689 5687 5686 5685 5684 5683 5681 5681 5680
5737 5737 5738 5739 5740 5741 5741 5742 5743 5744 5744 5745 5746 5746 5747 5747 5747 5748 5748 5749 5749 5749 5749 5749 5749 5749 5749 5748 5748 5748 5747 5747 5746 5746 5745 5744 5743 5743 5742 5741 5740 5739 5738 5737 5736 5734 5733 5731 5730 5729 5727 5726 5725 5723 5722 5720 5718 5716 5714 5712 5710 5708 5706 5705 5703 5702 5701 5699 5698 5696 5695 5694 5693 5692 5691 5690 5689 5687 5686 5685 5684 5683 5681 5681 5680 5679
5735 5735 5736 5736 5737 5738 5738 5739 5740 5741 5741 5742 5743 5743 5744 5744 5744 5745 5745 5746 5746 5746 5746 5746 5746 5746 5745 5745 5745 5744 5744 5743 5743 5742 5741 5741 5740 5739 5738 5737 5736 5735 5734 5733 5732 5731 5729 5728 5726 5725 5724 5722 5721 5720 5718 5717 5715 5713 5711 5709 5707 5706 5704 5702 5701 5700 5699 5697 5696 5695 5694 5693 5691 5691 5689 5688 5687 5686 5685 5684 5683 5681 5680 5679 5678 5677
5732 5732 5733 5733 5734 5735 5736 5736 5737 5738 5739 5739 5740 5740 5741 5741 5741 5742 5742 5742 5742 5742 5743 5743 5742 5742 5741 5741 5741 5741 5740 5740 5739 5738 5738 5737 5736 5735 5735 5734 5733 5731 5731 5729 5728 5726 5725 5724 5722 5721 5720 5719 5718 5716 5715 5713 5711 5710 5708 5706 5704 5703 5701 5700 5699 5698 5697 5696 5694 5693 5692 5691 5690 5689 5688 5687 5686 5685 5684 5682 5681 5680 5679 5678 5677 5676
5729 5730 5730 5731 5732 5732 5733 5734 5734 5735 5736 5736 5737 5737 5738 5738 5738 5739 5739 5739 5739 5739 5739 5739 5739 5739 5738 5738 5737 5737 5736 5736 5735 5735 5734 5733 5732 5732 5731 5730 5729 5728 5726 5725 5724 5723 5721 5720 5719 5718 5717 5716 5714 5713 5711 5710 5708 5706 5705 5703 5702 5700 5699 5698 5697 5696 5695 5694 5693 5691 5691 5689 5688 5687 5686 5685 5684 5683 5682 5681 5680 5679 5677 5676 5676 5675
5726 5727 5727 5728 5729 5729 5730 5731 5731 5732 5733 5733 5734 5734 5735 5735 5735 5736 5736 5736 5736 5736 5736 5736 5735 5735 5735 5734 5734 5733 5733 5732 5732 5731 5730 5730 5729 5728 5727 5726 5725 5724 5723 5721 5720 5719 5718 5717 5716 5714 5713 5712 5711 5709 5708 5706 5705 5703 5701 5700 5699 5698 5697 5696 5695 5694 5693 5692 5691 5690 5689 5688 5686 5686 5685 5683 5682 5681 5680 5679 5678 5677 5676 5675 5674 5673
5723 5724 5724 5725 5726 5726 5727 5728 5728 5729 5730 5730 5731 5731 5731 5732 5732 5732 5732 5732 5732 5732 5732 5732 5731 5731 5731 5731 5730 5730 5729 5729 5728 5727 5727 5726 5725 5724 5723 5722 5721 5720 5719 5718 5717 5716 5714 5713 5712 5711 5710 5709 5707 5706 5704 5703 5701 5700 5699 5698 5697 5696 5695 5694 5693 5692 5691 5690 5689 5688 5687 5686 5685 5684 5682 5681 5680 5679 5678 5677 5676 5675 5674 5673 5672 5671
5720 5721 5721 5722 5722 5723 5724 5724 5725 5726 5726 5727 5727 5728 5728 5728 5728 5728 5728 5728 5728 5728 5728 5728 5728 5728 5727 5727 5727 5726 5726 5725 5724 5724 5723 5722 5721 5721 5720 5719 5718 5717 5716 5714 5713 5712 5711 5710 5709 5708 5706 5705 5704 5702 5701 5700 5698 5697 5696 5695 5694 5693 5692 5691 5691 5690 5689 5688 5687 5686 5685 5684 5683 5681 5681 5679 5678 5677 5676 5675 5674 5673 5672 5671 5670 5669
5717 5717 5718 5719 5720 5720 5721 5721 5722 5722 5723 5723 5724 5724 5725 5725 5725 5725 5725 5725 5725 5725 5725 5725 5724 5724 5724 5724 5723 5723 5722 5721 5721 5720 5719 5719 5718 5717 5716 5715 5714 5713 5712 5711 5710 5709 5708 5706 5706 5704 5703 5702 5701 5699 5698 5697 5696 5695 5693 5692 5692 5691 5690 5689 5688 5687 5686 5685 5684 5683 5682 5681 5680 5679 5678 5677 5676 5675 5673 5672 5671 5671 5670 5669 5668 5667
5714 5714 5715 5716 5716 5717 5718 5718 5718 5719 5720 5720 5720 5720 5721 5721 5721 5721 5722 5721 5721 5721 5721 5721 5721 5720 5720 5720 5720 5719 5718 5718 5717 5716 5716 5715 5714 5713 5712 5711 5711 5709 5708 5707 5706 5705 5704 5703 5702 5701 5700 5699 5697 5696 5695 5694 5693 5692 5691 5690 5689 5688 5687 5686 5686 5685 5684 5683 5682 5681 5680 5679 5678 5677 5676 5675 5673 5672 5671 5670 5669 5668 5667 5666 5666 5665
5711 5711 5712 5712 5713 5714 5714 5715 5715 5716 5716 5716 5716 5716 5717 5717 5718 5718 5718 5718 5718 5718 5718 5717 5717 5716 5716 5716 5716 5715 5715 5714 5713 5712 5712 5711 5711 5709 5708 5707 5706 5706 5705 5704 5703 5701 5701 5700 5699 5698 5696 5695 5694 5693 5692 5691 5690 5689 5688 5687 5686 5686 5685 5684 5683 5682 5681 5681 5680 5679 5678 5676 5676 5674 5673 5672 5671 5670 5669 5668 5666 5666 5665 5664 5663 5662
5707 5708 5709 5709 5710 5711 5711 5711 5711 5712 5713 5713 5713 5713 5714 5714 5714 5715 5714 5714 5714 5714 5714 5713 5713 5713 5713 5712 5711 5711 5711 5711 5710 5709 5708 5707 5706 5706 5705 5704 5703 5702 5701 5700 5699 5698 5697 5696 5696 5694 5693 5692 5691 5690 5689 5688 5687 5686 5685 5684 5684 5683 5682 5681 5681 5680 5679 5678 5677 5676 5675 5674 5673 5672 5671 5670 5668 5667 5666 5665 5664 5663 5662 5661 5661 5660
5704 5705 5706 5706 5706 5707 5707 5708 5708 5709 5709 5710 5710 5710 5710 5710 5711 5711 5711 5710 5710 5710 5710 5710 5709 5709 5709 5709 5708 5707 5707 5707 5706 5705 5705 5703 5703 5702 5701 5700 5699 5698 5697 5697 5696 5695 5694 5693 5692 5691 5690 5689 5688 5687 5686 5685 5684 5683 5682 5681 5681 5680 5679 5679 5678 5677 5676 5675 5674 5673 5672 5671 5670 5669 5668 5667 5666 5665 5664 5663 5662 5661 5660 5659 5658 5657
5700 5701 5702 5702 5703 5703 5704 5705 5705 5705 5706 5706 5706 5706 5706 5706 5707 5707 5707 5706 5706 5706 5706 5706 5705 5705 5704 5705 5704 5704 5703 5703 5702 5701 5701 5700 5699 5698 5697 5696 5695 5694 5694 5693 5692 5691 5690 5690 5689 5688 5686 5686 5685 5684 5683 5682 5681 5680 5679 5679 5678 5677 5676 5676 5675 5674 5673 5672 5671 5671 5670 5668 5667 5666 5665 5664 5663 5662 5661 5660 5659 5658 5657 5656 5656 5655
5696 5697 5698 5698 5699 5700 5700 5701 5701 5701 5702 5702 5703 5703 5702 5702 5703 5703 5703 5702 5702 5702 5702 5702 5701 5701 5700 5700 5700 5700 5700 5699 5698 5698 5697 5696 5695 5694 5694 5693 5691 5690 5690 5690 5689 5687 5686 5686 5686 5684 5683 5682 5681 5681 5680 5679 5678 5677 5676 5676 5675 5674 5673 5673 5672 5671 5671 5670 5669 5668 5667 5666 5665 5664 5662 5661 5661 5660 5659 5658 5657 5656 5655 5654 5653 5652
5693 5694 5694 5694 5695 5696 5696 5697 5698 5698 5698 5698 5699 5699 5699 5699 5699 5699 5699 5699 5698 5698 5698 5698 5697 5697 5696 5696 5696 5696 5696 5695 5694 5693 5693 5692 5691 5690 5690 5690 5688 5686 5686 5686 5686 5684 5683 5682 5682 5681 5680 5679 5678 5677 5676 5676 5675 5674 5673 5672 5672 5671 5671 5670 5669 5668 5667 5666 5666 5665 5664 5663 5662 5661 5660 5659 5658 5657 5656 5655 5654 5653 5652 5651 5650 5649
5689 5690 5690 5691 5691 5692 5693 5693 5694 5694 5694 5694 5695 5695 5695 5695 5695 5695 5695 5695 5694 5694 5694 5694 5693 5693 5692 5692 5692 5692 5692 5691 5690 5689 5689 5688 5687 5686 5686 5686 5685 5683 5682 5682 5682 5681 5680 5679 5678 5677 5676 5676 5675 5674 5673 5672 5671 5671 5670 5669 5669 5668 5667 5667 5666 5665 5665 5664 5663 5662 5661 5660 5659 5658 5657 5656 5655 5654 5653 5652 5651 5650 5649 5648 5647 5646
5685 5686 5686 5686 5687 5688 5689 5690 5690 5690 5690 5691 5691 5691 5691 5691 5691 5691 5691 5691 5691 5690 5690 5689 5689 5689 5689 5688 5688 5688 5689 5688 5686 5685 5685 5684 5683 5682 5682 5682 5681 5680 5679 5678 5678 5677 5676 5676 5675 5674 5673 5672 5671 5671 5670 5669 5668 5667 5667 5666 5666 5665 5664 5664 5663 5662 5661 5661 5660 5659 5658 5657 5656 5655 5654 5653 5652 5651 5650 5649 5648 5647 5646 5645 5644 5643
5681 5681 5682 5683 5683 5684 5685 5686 5686 5686 5686 5686 5686 5686 5686 5686 5686 5687 5687 5686 5686 5686 5686 5685 5685 5685 5685 5685 5684 5684 5684 5684 5683 5681 5681 5681 5680 5679 5679 5679 5678 5677 5676 5675 5674 5674 5673 5672 5671 5671 5670 5669 5668 5668 5667 5666 5665 5665 5664 5663 5662 5662 5661 5660 5660 5659 5658 5657 5657 5656 5655 5654 5653 5652 5651 5650 5649 5648 5647 5646 5645 5644 5643 5642 5641 5640
5676 5677 5679 5679 5679 5680 5681 5681 5681 5682 5682 5682 5682 5682 5682 5682 5683 5683 5683 5682 5682 5682 5682 5681 5681 5680 5681 5681 5681 5680 5680 5680 5680 5678 5677 5677 5676 5676 5675 5676 5675 5674 5672 5671 5671 5670 5670 5669 5668 5667 5667 5666 5666 5665 5664 5663 5662 5661 5661 5660 5659 5658 5658 5657 5656 5656 5655 5654 5654 5653 5652 5651 5650 5649 5648 5647 5646 5645 5644 5643 5642 5641 5640 5639 5638 5637
5673 5674 5674 5675 5676 5676 5676 5676 5677 5678 5678 5677 5677 5678 5678 5678 5679 5679 5678 5678 5678 5678 5677 5677 5677 5676 5676 5677 5676 5676 5676 5676 5676 5675 5674 5673 5673 5672 5672 5672 5672 5671 5670 5668 5667 5667 5666 5665 5665 5664 5664 5663 5662 5662 5661 5660 5659 5658 5658 5657 5656 5655 5655 5654 5653 5653 5652 5651 5650 5650 5649 5648 5647 5646 5645 5644 5643 5642 5641 5640 5639 5637 5636 5636 5634 5633
5669 5670 5670 5671 5672 5672 5672 5672 5673 5673 5673 5673 5673 5673 5674 5674 5675 5674 5674 5674 5674 5674 5673 5673 5673 5672 5672 5672 5672 5671 5672 5672 5672 5671 5671 5670 5669 5668 5668 5669 5669 5668 5666 5666 5665 5664 5663 5662 5661 5661 5661 5660 5659 5659 5658 5657 5656 5655 5655 5654 5653 5652 5651 5651 5650 5649 5649 5648 5647 5646 5646 5645 5643 5642 5641 5641 5640 5638 5637 5636 5635 5634 5633 5632 5631 5630
5665 5665 5666 5667 5668 5668 5667 5668 5668 5668 5669 5669 5669 5669 5669 5670 5670 5670 5670 5670 5670 5670 5669 5669 5669 5668 5668 5668 5668 5667 5667 5668 5668 5668 5667 5666 5665 5664 5664 5665 5665 5664 5663 5662 5662 5661 5660 5659 5658 5658 5658 5657 5656 5656 5655 5654 5653 5652 5651 5651 5650 5649 5648 5647 5647 5646 5645 5645 5644 5643 5642 5641 5640 5639 5638 5637 5636 5635 5634 5633 5632 5631 5630 5628 5627 5626
5661 5661 5661 5662 5663 5663 5663 5663 5663 5664 5664 5664 5665 5665 5665 5665 5666 5666 5665 5665 5665 5665 5665 5665 5665 5664 5664 5664 5664 5664 5663 5663 5664 5664 5663 5662 5661 5660 5660 5661 5661 5661 5659 5659 5659 5658 5657 5656 5655 5655 5655 5654 5653 5653 5652 5651 5650 5649 5648 5647 5646 5646 5645 5644 5643 5643 5642 5641 5640 5640 5639 5638 5637 5636 5635 5634 5633 5631 5631 5629 5628 5627 5626 5625 5623 5622
5656 5657 5657 5658 5658 5659 5659 5659 5659 5659 5659 5660 5660 5661 5661 5661 5661 5661 5661 5661 5661 5661 5661 5661 5661 5660 5660 5660 5660 5660 5659 5659 5660 5660 5659 5658 5657 5656 5656 5657 5657 5657 5655 5654 5654 5655 5654 5653 5652 5651 5651 5651 5650 5650 5649 5648 5647 5646 5645 5644 5643 5642 5642 5641 5640 5639 5639 5638 5637 5636 5635 5634 5633 5632 5631 5630 5629 5628 5627 5626 5625 5623 5622 5621 5620 5618
5652 5652 5653 5653 5654 5654 5654 5654 5654 5655 5655 5656 5656 5656 5656 5657 5657 5657 5657 5657 5657 5658 5658 5658 5657 5656 5656 5656 5657 5656 5655 5655 5655 5656 5655 5654 5653 5652 5651 5652 5653 5653 5651 5650 5650 5651 5650 5649 5648 5647 5648 5647 5647 5646 5645 5644 5643 5643 5642 5641 5640 5639 5638 5637 5637 5636 5635 5634 5633 5632 5631 5631 5630 5629 5628 5626 5626 5625 5623 5622 5621 5620 5619 5617 5616 5615
5647 5648 5648 5649 5649 5650 5650 5650 5650 5650 5651 5651 5651 5652 5652 5653 5653 5653 5653 5653 5653 5654 5655 5654 5653 5652 5652 5653 5652 5652 5651 5651 5651 5651 5651 5651 5650 5648 5647 5648 5649 5649 5647 5646 5646 5646 5646 5645 5644 5644 5644 5644 5643 5643 5642 5641 5640 5639 5638 5637 5636 5636 5635 5634 5633 5632 5631 5631 5630 5629 5628 5627 5626 5625 5624 5623 5622 5621 5620 5619 5617 5616 5615 5613 5612 5611
5643 5643 5644 5644 5645 5645 5645 5645 5646 5646 5646 5647 5647 5648 5648 5649 5649 5649 5649 5649 5650 5651 5651 5650 5649 5649 5649 5649 5648 5648 5648 5648 5647 5646 5646 5647 5646 5645 5643 5644 5645 5644 5643 5642 5641 5641 5641 5641 5641 5640 5640 5639 5639 5639 5638 5637 5636 5635 5635 5634 5633 5632 5631 5630 5629 5628 5628 5627 5626 5625 5624 5623 5622 5621 5620 5619 5618 5617 5616 5615 5613 5612 5611 5609 5608 5606
5638 5639 5639 5640 5640 5640 5641 5641 5641 5641 5642 5643 5643 5644 5644 5645 5645 5645 5645 5645 5646 5647 5646 5646 5645 5646 5646 5645 5645 5645 5645 5644 5644 5643 5643 5643 5642 5641 5640 5641 5641 5640 5639 5639 5638 5636 5636 5636 5637 5637 5636 5635 5635 5635 5634 5633 5632 5631 5631 5630 5629 5628 5627 5626 5626 5625 5624 5623 5622 5621 5620 5619 5618 5617 5616 5615 5614 5613 5612 5611 5609 5608 5606 5605 5604 5602
5633 5634 5635 5635 5635 5636 5636 5636 5637 5637 5638 5639 5639 5640 5640 5640 5641 5641 5641 5641 5642 5642 5642 5641 5641 5642 5642 5642 5641 5641 5641 5640 5640 5640 5640 5640 5638 5637 5637 5637 5637 5636 5635 5635 5634 5633 5631 5631 5632 5633 5632 5631 5631 5630 5630 5629 5629 5628 5627 5626 5626 5625 5624 5623 5622 5621 5620 5619 5618 5617 5616 5615 5614 5613 5612 5611 5609 5608 5607 5606 5605 5604 5602 5601 5599 5597
5628 5629 5630 5630 5631 5631 5632 5632 5633 5633 5634 5635 5635 5636 5636 5636 5637 5637 5637 5637 5638 5638 5638 5638 5638 5638 5638 5638 5638 5638 5636 5636 5636 5637 5637 5637 5635 5633 5633 5634 5633 5632 5631 5632 5631 5630 5628 5626 5627 5628 5629 5628 5627 5626 5626 5626 5625 5624 5623 5622 5621 5621 5620 5619 5618 5617 5616 5615 5614 5613 5612 5611 5610 5608 5607 5606 5605 5604 5602 5601 5600 5599 5598 5596 5594 5593
5624 5625 5625 5626 5626 5626 5627 5628 5628 5629 5630 5631 5631 5632 5632 5632 5632 5633 5633 5633 5634 5634 5635 5635 5635 5635 5635 5635 5635 5634 5633 5633 5633 5633 5634 5633 5632 5630 5630 5631 5630 5629 5627 5628 5628 5627 5625 5623 5622 5623 5624 5624 5623 5622 5622 5621 5621 5620 5619 5618 5617 5616 5616 5615 5614 5613 5612 5611 5610 5609 5608 5606 5605 5604 5602 5601 5600 5599 5597 5596 5595 5594 5593 5591 5590 5588
5619 5620 5620 5621 5621 5622 5623 5624 5624 5625 5626 5626 5627 5628 5628 5628 5629 5629 5629 5629 5630 5630 5631 5631 5631 5631 5631 5631 5631 5631 5631 5630 5629 5629 5630 5630 5629 5627 5626 5627 5627 5626 5625 5624 5624 5624 5623 5621 5620 5619 5619 5619 5619 5618 5618 5617 5616 5616 5615 5614 5613 5612 5612 5611 5610 5609 5608 5607 5606 5605 5603 5602 5601 5599 5598 5596 5595 5594 5592 5591 5590 5589 5588 5586 5585 5583
5614 5615 5616 5616 5617 5618 5619 5619 5620 5621 5622 5622 5623 5624 5624 5624 5625 5625 5625 5626 5626 5626 5627 5627 5627 5628 5628 5628 5628 5628 5627 5626 5626 5626 5626 5626 5625 5624 5624 5624 5624 5623 5622 5621 5620 5620 5619 5618 5617 5616 5615 5615 5614 5614 5614 5613 5612 5612 5611 5611 5610 5608 5608 5607 5606 5605 5604 5603 5602 5601 5599 5598 5596 5595 5593 5591 5590 5589 5587 5586 5585 5584 5582 5581 5580 5578
5610 5611 5611 5612 5613 5614 5615 5615 5616 5617 5618 5618 5619 5620 5620 5621 5621 5621 5621 5622 5622 5623 5623 5623 5624 5624 5624 5624 5624 5624 5624 5623 5623 5623 5623 5622 5621 5621 5621 5620 5620 5620 5619 5618 5617 5616 5616 5615 5614 5613 5612 5611 5610 5610 5610 5610 5609 5608 5607 5606 5606 5605 5604 5603 5602 5601 5600 5599 5598 5596 5595 5594 5592 5590 5589 5587 5585 5584 5582 5581 5580 5578 5577 5576 5574 5572
5605 5606 5607 5608 5609 5610 5611 5611 5612 5613 5614 5614 5615 5616 5616 5617 5617 5618 5618 5618 5619 5619 5619 5620 5620 5620 5621 5621 5621 5621 5620 5620 5619 5619 5619 5619 5618 5618 5617 5616 5616 5616 5616 5615 5613 5612 5612 5611 5610 5609 5609 5608 5607 5606 5606 5606 5605 5604 5603 5602 5602 5601 5600 5599 5598 5597 5596 5595 5594 5592 5591 5590 5588 5586 5584 5582 5581 5579 5577 5576 5574 5573 5571 5570 5568 5567
5601 5601 5602 5603 5605 5606 5607 5607 5608 5609 5610 5610 5611 5612 5612 5613 5614 5614 5615 5615 5615 5616 5616 5616 5616 5617 5617 5617 5617 5617 5617 5616 5616 5616 5616 5615 5615 5615 5614 5613 5612 5612 5612 5611 5610 5609 5608 5607 5606 5606 5605 5604 5603 5603 5602 5601 5601 5601 5600 5599 5598 5597 5596 5595 5594 5593 5592 5591 5589 5588 5587 5586 5584 5582 5580 5578 5576 5574 5572 5571 5569 5568 5566 5564 5563 5561
5596 5597 5598 5600 5601 5602 5603 5603 5604 5605 5606 5606 5607 5608 5609 5610 5610 5611 5611 5611 5612 5612 5612 5613 5613 5613 5614 5614 5614 5614 5614 5613 5613 5613 5612 5612 5611 5611 5611 5610 5609 5608 5608 5608 5607 5606 5605 5604 5603 5602 5601 5601 5600 5600 5599 5598 5597 5597 5596 5595 5594 5593 5592 5591 5590 5589 5588 5587 5586 5584 5583 5581 5580 5578 5576 5574 5572 5570 5568 5566 5564 5563 5561 5559 5557 5556
5592 5593 5594 5596 5597 5598 5599 5600 5600 5601 5602 5603 5604 5605 5605 5606 5607 5607 5608 5608 5609 5609 5609 5610 5610 5610 5610 5611 5611 5611 5611 5610 5610 5610 5609 5609 5608 5608 5607 5606 5606 5605 5605 5604 5603 5602 5601 5601 5600 5599 5598 5597 5596 5596 5595 5595 5594 5593 5592 5591 5590 5589 5588 5587 5586 5585 5584 5583 5581 5580 5579 5577 5576 5573 5571 5569 5567 5565 5563 5561 5559 5557 5556 5554 5552 5550
5588 5590 5591 5592 5593 5594 5595 5596 5597 5598 5599 5600 5601 5601 5602 5603 5603 5604 5604 5605 5605 5606 5606 5606 5606 5607 5607 5607 5607 5607 5607 5607 5607 5606 5606 5606 5605 5604 5604 5603 5602 5601 5601 5600 5600 5599 5598 5597 5596 5596 5595 5594 5593 5592 5591 5591 5590 5590 5589 5587 5586 5586 5585 5584 5582 5581 5580 5579 5578 5576 5575 5573 5571 5569 5567 5565 5562 5560 5558 5556 5554 5552 5551 5549 5547 5545
5585 5586 5587 5588 5589 5590 5591 5592 5593 5594 5596 5596 5597 5598 5599 5599 5600 5601 5601 5601 5602 5602 5602 5603 5603 5603 5604 5604 5604 5604 5604 5604 5604 5603 5603 5602 5601 5601 5600 5600 5599 5598 5598 5597 5596 5596 5595 5594 5593 5592 5591 5591 5590 5589 5587 5587 5586 5586 5585 5584 5583 5581 5581 5579 5578 5577 5576 5575 5574 5572 5571 5569 5567 5565 5562 5560 5558 5556 5554 5551 5549 5547 5546 5544 5542 5540
5581 5582 5583 5584 5585 5587 5588 5589 5590 5591 5592 5593 5594 5595 5595 5596 5597 5597 5598 5598 5599 5599 5599 5600 5600 5600 5601 5601 5601 5601 5601 5601 5601 5600 5600 5599 5598 5598 5597 5596 5596 5595 5594 5594 5593 5592 5591 5591 5590 5589 5588 5587 5586 5585 5584 5583 5583 5582 5581 5580 5579 5578 5576 5575 5575 5574 5572 5571 5569 5568 5566 5565 5562 5561 5558 5556 5553 5551 5549 5547 5545 5542 5541 5538 5536 5535
5577 5578 5579 5581 5582 5583 5585 5586 5587 5588 5589 5590 5591 5591 5592 5593 5594 5594 5595 5595 5596 5596 5596 5597 5597 5597 5598 5597 5597 5597 5597 5597 5597 5597 5596 5596 5595 5594 5594 5593 5592 5591 5591 5590 5589 5589 5588 5587 5586 5586 5585 5584 5583 5582 5581 5580 5579 5578 5577 5576 5576 5574 5573 5571 5571 5570 5568 5566 5565 5564 5562 5560 5558 5556 5554 5551 5549 5547 5544 5542 5540 5538 5536 5533 5531 5529
5574 5575 5576 5577 5579 5580 5581 5583 5584 5585 5586 5587 5588 5588 5589 5590 5591 5591 5591 5592 5592 5593 5593 5594 5594 5594 5595 5595 5594 5594 5594 5594 5594 5593 5593 5592 5591 5591 5590 5590 5589 5588 5587 5587 5586 5585 5584 5584 5583 5582 5581 5580 5579 5578 5577 5576 5576 5575 5574 5573 5572 5571 5569 5568 5566 5565 5564 5562 5561 5559 5557 5556 5554 5551 5549 5547 5545 5542 5540 5537 5535 5532 5531 5528 5526 5524
5571 5572 5573 5574 5576 5577 5579 5580 5581 5582 5583 5584 5585 5585 5586 5586 5587 5588 5589 5589 5589 5590 5590 5590 5591 5591 5591 5591 5591 5591 5591 5591 5590 5590 5589 5589 5588 5588 5587 5586 5585 5585 5584 5583 5582 5582 5581 5580 5579 5578 5578 5577 5576 5575 5574 5573 5572 5571 5570 5569 5568 5566 5565 5564 5562 5561 5559 5558 5556 5554 5553 5551 5549 5547 5545 5543 5541 5538 5535 5533 5530 5528 5525 5523 5521 5519
5567 5569 5570 5571 5573 5574 5576 5577 5578 5579 5580 5581 5581 5582 5583 5584 5584 5585 5586 5586 5586 5586 5587 5587 5588 5588 5587 5587 5588 5588 5588 5587 5587 5586 5586 5586 5585 5584 5584 5583 5582 5581 5581 5580 5579 5578 5577 5576 5576 5575 5574 5573 5572 5571 5570 5570 5568 5567 5566 5565 5564 5562 5561 5560 5558 5557 5555 5553 5551 5550 5548 5546 5545 5543 5541 5539 5536 5533 5531 5528 5526 5523 5520 5518 5516 5513
5564 5566 5567 5569 5570 5571 5573 5574 5575 5576 5577 5578 5578 5579 5580 5581 5581 5582 5582 5583 5583 5583 5584 5584 5584 5584 5584 5584 5584 5585 5585 5584 5584 5583 5583 5582 5581 5581 5580 5579 5579 5578 5577 5576 5575 5574 5574 5573 5572 5571 5570 5570 5568 5567 5567 5566 5565 5564 5562 5561 5560 5559 5557 5556 5554 5552 5551 5549 5547 5545 5543 5542 5540 5538 5536 5535 5532 5529 5526 5523 5520 5517 5515 5512 5510 5507
5561 5563 5565 5566 5567 5569 5570 5571 5572 5573 5574 5575 5576 5576 5577 5578 5578 5579 5579 5580 5580 5580 5581 5581 5581 5581 5581 5581 5581 5581 5581 5581 5581 5580 5580 5579 5578 5577 5577 5576 5575 5574 5574 5573 5572 5571 5570 5569 5568 5567 5566 5566 5565 5564 5563 5562 5561 5560 5559 5557 5556 5555 5553 5551 5550 5548 5546 5545 5543 5541 5539 5537 5536 5534 5532 5530 5528 5525 5522 5518 5515 5512 5509 5507 5505 5502
5559 5561 5562 5563 5565 5566 5567 5568 5569 5570 5571 5572 5573 5573 5574 5575 5575 5576 5576 5576 5577 5577 5577 5577 5577 5577 5577 5577 5577 5577 5577 5577 5577 5576 5576 5576 5575 5574 5574 5573 5572 5571 5570 5569 5568 5567 5566 5566 5565 5564 5563 5562 5561 5560 5559 5558 5557 5556 5555 5553 5552 5551 5549 5547 5546 5544 5542 5540 5538 5536 5535 5533 5531 5529 5527 5525 5523 5520 5517 5514 5510 5506 5504 5501 5499 5497
5556 5557 5559 5561 5562 5563 5564 5565 5566 5567 5568 5569 5570 5571 5571 5571 5572 5573 5573 5573 5573 5574 5574 5574 5574 5574 5574 5574 5574 5574 5574 5574 5573 5573 5573 5572 5572 5571 5570 5570 5569 5568 5567 5566 5565 5564 5563 5562 5561 5560 5559 5558 5557 5556 5555 5554 5553 5552 5551 5550 5548 5547 5545 5543 5541 5540 5538 5536 5534 5531 5530 5527 5526 5524 5522 5520 5518 5515 5512 5509 5506 5502 5499 5496 5494 5492
5553 5555 5556 5558 5559 5560 5561 5562 5563 5564 5565 5566 5567 5567 5568 5569 5569 5569 5570 5570 5570 5570 5570 5570 5571 5571 5570 5570 5570 5571 5571 5570 5570 5570 5569 5569 5568 5567 5567 5566 5566 5565 5564 5563 5562 5561 5560 5559 5558 5556 5556 5555 5554 5552 5550 5549 5549 5548 5547 5546 5544 5543 5541 5539 5537 5535 5533 5531 5529 5527 5525 5522 5520 5518 5516 5515 5512 5510 5507 5505 5501 5497 5494 5492 5489 5487